Location: Chiroubles
(46.1812°N, 4.6660°E)
Time: 11:11:53
(UTC+00:00)

N. Korean satellite - Pass Details

Date: 27 October 2020
Orbit: 453 x 503 km, 97.2° (Epoch: 03 December)

Event Time Altitude Azimuth Distance (km) Brightness Sun altitude
Rises 05:22:58 0° 11° (N) 2,485 10.2 -9.7°
Reaches altitude 10° 05:25:01 10° 10° (N) 1,603 9.2 -9.3°
Maximum altitude 05:28:26 79° 284° (WNW) 468 6.3 -8.7°
Drops below altitude 10° 05:31:50 10° 197° (SSW) 1,585 9.1 -8.2°
Sets 05:33:51 0° 196° (SSW) 2,455 10.1 -7.8°
